Погода в Никольском

Россия / Ярославская область     57°35′46″N   38°38′11″E
темп.,
°C
ветер,
м/с
пор.,
м/с
влажн.,
%
обл.,
%
осадки,
мм/ч
давл.,
гПа
погр.,
м
17 июня, чт
чт1700:00+12сз226628 0.0 101931
03:00+10ссз297172 0.0 1021193
06:00+12ссз3959100 0.0 1022333
09:00+18ссз36419 0.0 1023725
12:00+21сз353710 0.0 10241613
15:00+22з464295 0.0 10242175
18:00+21з364910 0.0 10241070
21:00+16зюз22720 0.0 102436
18 июня, пт
пт1800:00+13з25800 0.0 102581
03:00+12зсз11887 0.0 102613
06:00+16з11745 0.0 102784
09:00+22зюз234932 0.0 1027663
12:00+25з344017 0.0 10261652
15:00+26з45406 0.0 10251753
18:00+25зюз36505 0.0 10241123
21:00+19юз37753 0.0 1024151
19 июня, сб
сб1900:00+16юз3107837 0.0 1025200
03:00+15зюз311858 0.0 1025255
06:00+18зюз39785 0.0 1025275
09:00+23зюз46575 0.0 1025599
12:00+27зюз46470 0.0 10241563
15:00+28з46450 0.0 10231798
18:00+27зюз35525 0.0 10221601
21:00+20юз37780 0.0 1022130
20 июня, вс
вс2000:00+18юз28835 0.0 1023135
03:00+16зюз28880 0.0 1024153
06:00+18зюз37805 0.0 1024200
09:00+24юз35575 0.0 1023613
12:00+27юз44445 0.0 10221481
15:00+28юз45375 0.0 10211698
18:00+27юз34470 0.0 10201124
21:00+20ююз36730 0.0 1020105
21 июня, пн
пн2100:00+18юз24825 0.0 102158
03:00+17юз268741 0.0 1021120
06:00+20зюз27800 0.0 1021189
09:00+26зюз35611 0.0 1021689
12:00+29зюз45466 0.0 10201948
15:00+30з354468 0.0 10192434
18:00+28з2553100 0.1 10191434
21:00+22ю23837 1.8 101948